Location: ??????
(55.7522°N, 37.6156°E)
Time: 03:03:12
(UTC+00:00)

Sich 1 Rocket - Pass Details

Date: 14 June 2025
Orbit: 612 x 646 km, 82.5° (Epoch: 11 July)

Event Time Altitude Azimuth Distance (km) Brightness Sun altitude
Rises 22:13:09 0° 350° (N) 2,914 8.5 -10.4°
Reaches altitude 10° 22:15:27 10° 356° (N) 2,008 7.6 -10.3°
Maximum altitude 22:19:47 51° 73° (ENE) 797 4.3 -10.2°
Drops below altitude 10° 22:24:09 10° 149° (SSE) 2,014 5.8 -10.1°
Enters shadow 22:24:59 - 152° (SSE) 2,343 6.1 -10.1°
